This is the latest recevied weather packets stored in our database for station/object KD2FKI. If no packets are shown the sender has not sent any weather packets the latest 10 day(s).
| Time | Temp. | Humidity | Pressure | Rain* | Wind** | Luminosity | Snow |
|---|---|---|---|---|---|---|---|
| 1777505439 | 11.67° C | 98% | - | 0.51 mm | - | - | - |
| 1777504842 | 14.44° C | 99% | - | 0.51 mm | - | - | - |
| 1777504253 | 15° C | 99% | - | 0.51 mm | - | - | - |
| 1777503639 | 15° C | 99% | - | 1.52 mm | - | - | - |
| 1777503034 | 14.44° C | 99% | - | 2.03 mm | - | - | - |
| 1777502455 | 14.44° C | 99% | - | 3.05 mm | - | - | - |
| 1777501847 | 14.44° C | 99% | - | 4.06 mm | - | - | - |
| 1777501234 | 14.44° C | 99% | - | 4.57 mm | - | - | - |
| 1777500661 | 14.44° C | 99% | - | 5.08 mm | - | - | - |
| 1777500032 | 14.44° C | 99% | - | 4.32 mm | - | - | - |
| 1777499460 | 14.44° C | 99% | - | 4.06 mm | - | - | - |
| 1777498830 | 14.44° C | 99% | - | 3.05 mm | - | - | - |
| 1777498256 | 15° C | 99% | - | 2.03 mm | - | - | - |
| 1777497648 | 15° C | 99% | - | 1.52 mm | - | - | - |
| 1777497037 | 15° C | 99% | - | 1.02 mm | - | - | - |
| 1777496448 | 15° C | 99% | - | 0.76 mm | - | - | - |
| 1777495836 | 15° C | 97% | - | 0.51 mm | - | - | - |
| 1777495241 | 15.56° C | 96% | - | 0.51 mm | - | - | - |
| 1777494633 | 15.56° C | 95% | - | 0 mm | - | - | - |
| 1777494040 | 15.56° C | 94% | - | 0 mm | - | - | - |
| 1777493446 | 15.56° C | 94% | - | 0 mm | - | - | - |
| 1777492835 | 16.11° C | 93% | - | 0 mm | - | - | - |
| 1777492245 | 16.67° C | 91% | - | 0 mm | - | - | - |
| 1777491636 | 16.11° C | 92% | - | 0 mm | - | - | - |
| 1777491041 | 15.56° C | 95% | - | 0 mm | - | - | - |
* Rain latest hour (hover to see other rain measurements)
** Current wind speed in m/s (hover to see current wind gust speed)